,,,PA_Meas_PMT16A,,PR_Meas_QMR101_102,,RH_Meas_QMH101,,SR_Meas_QMS101,,TA_Meas_QMH101,,GenWind,,GenWind,
date,time,status,PA,status,PR,status,RH,status,SR,status,TA,status,DirAvg,status,SpdAvg,
2009-11-18, 00:00:04,VALID,1010.72,VALID,0,VALID,71.3771,VALID,0,VALID,24.1617,VALID,281,VALID,1.45664,
2009-11-18, 00:01:04,VALID,1010.76,VALID,0,VALID,71.4152,VALID,0,VALID,24.1422,VALID,301,VALID,1.59063,
2009-11-18, 00:02:04,VALID,1010.75,VALID,0,VALID,71.4838,VALID,0,VALID,24.1014,VALID,293,VALID,0.894531,
2009-11-18, 00:03:04,VALID,1010.77,VALID,0.5,VALID,71.5067,VALID,0,VALID,24.1032,VALID,271,VALID,0.803516,
2009-11-18, 00:04:04,VALID,1010.85,VALID,0,VALID,71.4686,VALID,0,VALID,24.1032,VALID,283,VALID,1.04492,
2009-11-18, 00:05:04,VALID,1010.82,VALID,0.5,VALID,71.4991,VALID,0,VALID,24.1032,VALID,247,VALID,1.49844,
2009-11-18, 00:06:04,VALID,1010.82,VALID,0.5,VALID,71.5219,VALID,0,VALID,24.0448,VALID,249,VALID,0.525391,
2009-11-18, 00:07:04,VALID,1010.76,VALID,0,VALID,71.5448,VALID,0,VALID,23.9863,VALID,290,VALID,1.25391,
2009-11-18, 00:08:04,VALID,1010.71,VALID,0.5,VALID,71.5829,VALID,0,VALID,23.8871,VALID,297,VALID,0.930078,
2009-11-18, 00:09:04,VALID,1010.66,VALID,0.5,VALID,71.5601,VALID,0,VALID,23.8304,VALID,271,VALID,1.01289,
2009-11-18, 00:10:04,VALID,1010.6,VALID,0.5,VALID,71.5524,VALID,0,VALID,23.7896,VALID,208,VALID,0.828516,
2009-11-18, 00:11:04,VALID,1010.51,VALID,0.5,VALID,71.6363,VALID,0,VALID,23.7135,VALID,286,VALID,1.1457,
2009-11-18, 00:12:04,VALID,1010.47,VALID,0.5,VALID,71.6592,VALID,0.105969,VALID,23.6143,VALID,308,VALID,0.983984,
2009-11-18, 00:13:04,VALID,1010.42,VALID,0.5,VALID,71.6592,VALID,0,VALID,23.5576,VALID,321,VALID,0.562891,
2009-11-18, 00:14:04,VALID,1010.33,VALID,0.5,VALID,71.705,VALID,0,VALID,23.4992,VALID,28,VALID,0.257031,
2009-11-18, 00:15:04,VALID,1010.29,VALID,0,VALID,71.7431,VALID,0,VALID,23.4212,VALID,159,VALID,0.464063,
2009-11-18, 00:16:04,VALID,1010.25,VALID,0,VALID,71.7736,VALID,0,VALID,23.3823,VALID,48,VALID,0.741016,
2009-11-18, 00:17:04,VALID,1010.2,VALID,0,VALID,71.827,VALID,0.105969,VALID,23.3823,VALID,53,VALID,0.727344,
2009-11-18, 00:18:04,VALID,1010.18,VALID,0.5,VALID,71.827,VALID,0,VALID,23.3628,VALID,69,VALID,0.608984,
2009-11-18, 00:19:04,VALID,1010.15,VALID,0,VALID,71.8575,VALID,0,VALID,23.3628,VALID,69,VALID,0.139844,
2009-11-18, 00:20:04,VALID,1010.1,VALID,0,VALID,71.888,VALID,0.105969,VALID,23.3026,VALID,79,VALID,0.431641,
2009-11-18, 00:21:04,VALID,1010.06,VALID,0,VALID,71.8803,VALID,0.105969,VALID,23.322,VALID,93,VALID,0.617188,
2009-11-18, 00:22:04,VALID,1010.02,VALID,0,VALID,71.9032,VALID,0,VALID,23.3433,VALID,57,VALID,0.609375,
2009-11-18, 00:23:04,VALID,1010.01,VALID,0,VALID,71.9032,VALID,0,VALID,23.3026,VALID,76,VALID,1.02773,
2009-11-18, 00:24:04,VALID,1009.99,VALID,0.5,VALID,71.8956,VALID,0,VALID,23.3433,VALID,68,VALID,0.813672,
2009-11-18, 00:25:04,VALID,1009.98,VALID,0,VALID,71.8803,VALID,0.105969,VALID,23.322,VALID,70,VALID,1.01367,
2009-11-18, 00:26:04,VALID,1009.95,VALID,0,VALID,71.9185,VALID,0,VALID,23.322,VALID,103,VALID,0.358984,
2009-11-18, 00:27:04,VALID,1009.91,VALID,0,VALID,71.9185,VALID,0,VALID,23.322,VALID,84,VALID,0.821875,
2009-11-18, 00:28:04,VALID,1009.9,VALID,0,VALID,71.8803,VALID,0,VALID,23.3415,VALID,103,VALID,0.603906,
2009-11-18, 00:29:04,VALID,1009.85,VALID,0,VALID,71.9109,VALID,0.105969,VALID,23.3415,VALID,98,VALID,0.487891,
2009-11-18, 00:30:04,VALID,1009.8,VALID,0,VALID,71.9032,VALID,0,VALID,23.3628,VALID,97,VALID,0.970703,
2009-11-18, 00:31:04,VALID,1009.81,VALID,0,VALID,71.9032,VALID,0.105969,VALID,23.3433,VALID,88,VALID,0.983984,
2009-11-18, 00:32:04,VALID,1009.78,VALID,0,VALID,71.9337,VALID,0,VALID,23.3433,VALID,87,VALID,0.866016,
2009-11-18, 00:33:04,VALID,1009.77,VALID,0,VALID,71.949,VALID,0,VALID,23.322,VALID,60,VALID,0.480078,
2009-11-18, 00:34:04,VALID,1009.74,VALID,0,VALID,71.9566,VALID,0,VALID,23.3026,VALID,63,VALID,0.222656,
2009-11-18, 00:35:04,VALID,1009.74,VALID,0,VALID,72.0329,VALID,0,VALID,23.2654,VALID,69,VALID,1.13125,
2009-11-18, 00:36:04,VALID,1009.73,VALID,0,VALID,72.0939,VALID,0.105969,VALID,23.2264,VALID,22,VALID,0.364844,
2009-11-18, 00:37:04,VALID,1009.71,VALID,0,VALID,72.0863,VALID,0,VALID,23.2264,VALID,29,VALID,0.579297,
2009-11-18, 00:38:04,VALID,1009.7,VALID,0.5,VALID,72.1244,VALID,0,VALID,23.1874,VALID,55,VALID,0.648047,
2009-11-18, 00:39:04,VALID,1009.66,VALID,0,VALID,72.1015,VALID,0,VALID,23.1679,VALID,101,VALID,0.592578,
2009-11-18, 00:40:04,VALID,1009.67,VALID,0,VALID,72.1091,VALID,0,VALID,23.1679,VALID,72,VALID,0.451562,
2009-11-18, 00:41:04,VALID,1009.66,VALID,0,VALID,72.1549,VALID,0,VALID,23.1485,VALID,34,VALID,0.351563,
2009-11-18, 00:42:04,VALID,1009.66,VALID,0,VALID,72.1701,VALID,0,VALID,23.0883,VALID,26,VALID,0.4625,
2009-11-18, 00:43:04,VALID,1009.61,VALID,0,VALID,72.1778,VALID,0,VALID,23.0688,VALID,13,VALID,0.194531,
2009-11-18, 00:44:04,VALID,1009.61,VALID,0,VALID,72.193,VALID,0.105969,VALID,23.0493,VALID,21,VALID,0.317578,
2009-11-18, 00:45:04,VALID,1009.63,VALID,0,VALID,72.2006,VALID,0,VALID,23.0298,VALID,26,VALID,0.156641,
2009-11-18, 00:46:04,VALID,1009.61,VALID,0,VALID,72.1854,VALID,0,VALID,23.0298,VALID,39,VALID,0.378906,
2009-11-18, 00:47:04,VALID,1009.61,VALID,0,VALID,72.2235,VALID,0,VALID,23.0316,VALID,67,VALID,0.0671875,
2009-11-18, 00:48:04,VALID,1009.61,VALID,0,VALID,72.2006,VALID,0,VALID,23.0121,VALID,63,VALID,0.294922,
2009-11-18, 00:49:04,VALID,1009.61,VALID,0,VALID,72.2006,VALID,0.105969,VALID,23.0121,VALID,59,VALID,0.339063,
2009-11-18, 00:50:04,VALID,1009.63,VALID,0.5,VALID,72.2083,VALID,0,VALID,23.0316,VALID,59,VALID,0.115625,
2009-11-18, 00:51:04,VALID,1009.6,VALID,0,VALID,72.2235,VALID,0,VALID,22.9714,VALID,80,VALID,0.153125,
2009-11-18, 00:52:04,VALID,1009.56,VALID,0,VALID,72.2464,VALID,0,VALID,22.9731,VALID,98,VALID,0.510938,
2009-11-18, 00:53:04,VALID,1009.58,VALID,0,VALID,72.2311,VALID,0.105969,VALID,22.9731,VALID,86,VALID,0.671094,
2009-11-18, 00:54:04,VALID,1009.58,VALID,0,VALID,72.2159,VALID,0.105969,VALID,22.9519,VALID,106,VALID,0.821875,
2009-11-18, 00:55:04,VALID,1009.57,VALID,0,VALID,72.2083,VALID,0,VALID,22.9714,VALID,83,VALID,0.639844,
2009-11-18, 00:56:04,VALID,1009.54,VALID,0,VALID,72.1778,VALID,0.105969,VALID,22.9714,VALID,77,VALID,0.754687,
2009-11-18, 00:57:04,VALID,1009.51,VALID,0.5,VALID,72.1854,VALID,0,VALID,23.0121,VALID,115,VALID,0.921484,
2009-11-18, 00:58:04,VALID,1009.52,VALID,0,VALID,72.2006,VALID,0,VALID,22.9926,VALID,102,VALID,1.07266,
2009-11-18, 00:59:04,VALID,1009.51,VALID,0,VALID,72.2693,VALID,0,VALID,22.9926,VALID,87,VALID,0.860937,
2009-11-18, 01:00:04,VALID,1009.48,VALID,0,VALID,72.2464,VALID,0.105969,VALID,22.9714,VALID,83,VALID,0.726563,
2009-11-18, 01:01:04,VALID,1009.46,VALID,0,VALID,72.2693,VALID,0.105969,VALID,22.9731,VALID,86,VALID,0.913281,
2009-11-18, 01:02:04,VALID,1009.42,VALID,0,VALID,72.2921,VALID,0.105969,VALID,22.9324,VALID,94,VALID,1.08242,
2009-11-18, 01:03:04,VALID,1009.39,VALID,0,VALID,72.3303,VALID,0,VALID,22.9342,VALID,96,VALID,0.88125,
2009-11-18, 01:04:04,VALID,1009.37,VALID,0,VALID,72.2998,VALID,0.105969,VALID,22.9536,VALID,79,VALID,0.370313,
2009-11-18, 01:05:04,VALID,1009.37,VALID,0.5,VALID,72.2998,VALID,0,VALID,22.9342,VALID,79,VALID,0.459375,
2009-11-18, 01:06:04,VALID,1009.34,VALID,0,VALID,72.3455,VALID,0.105969,VALID,22.8952,VALID,79,VALID,0.399219,
2009-11-18, 01:07:04,VALID,1009.33,VALID,0,VALID,72.3837,VALID,0,VALID,22.8757,VALID,79,VALID,0.180859,
2009-11-18, 01:08:04,VALID,1009.29,VALID,0,VALID,72.3379,VALID,0,VALID,22.8545,VALID,31,VALID,0.342187,
2009-11-18, 01:09:04,VALID,1009.28,VALID,0,VALID,72.3379,VALID,0,VALID,22.8545,VALID,31,VALID,0,
2009-11-18, 01:10:04,VALID,1009.27,VALID,0,VALID,72.315,VALID,0.105969,VALID,22.8757,VALID,29,VALID,0,
2009-11-18, 01:11:04,VALID,1009.26,VALID,0,VALID,72.3379,VALID,0,VALID,22.8562,VALID,24,VALID,0.322656,
2009-11-18, 01:12:04,VALID,1009.25,VALID,0,VALID,72.3303,VALID,0.105969,VALID,22.835,VALID,18,VALID,0.334375,
2009-11-18, 01:13:04,VALID,1009.21,VALID,0,VALID,72.3074,VALID,0.105969,VALID,22.8545,VALID,16,VALID,0.187891,
2009-11-18, 01:14:04,VALID,1009.24,VALID,0.5,VALID,72.2998,VALID,0.105969,VALID,22.8757,VALID,16,VALID,0.00351562,
2009-11-18, 01:15:04,VALID,1009.23,VALID,0,VALID,72.2845,VALID,0.105969,VALID,22.8545,VALID,16,VALID,0,
2009-11-18, 01:16:04,VALID,1009.18,VALID,0,VALID,72.315,VALID,0.105969,VALID,22.8545,VALID,16,VALID,0,
2009-11-18, 01:17:04,VALID,1009.2,VALID,0,VALID,72.315,VALID,0,VALID,22.8368,VALID,16,VALID,0,
2009-11-18, 01:18:04,VALID,1009.2,VALID,0,VALID,72.3074,VALID,0,VALID,22.8562,VALID,16,VALID,0,
2009-11-18, 01:19:04,VALID,1009.15,VALID,0,VALID,72.2998,VALID,0,VALID,22.8368,VALID,16,VALID,0,
2009-11-18, 01:20:04,VALID,1009.12,VALID,0,VALID,72.2616,VALID,0,VALID,22.8562,VALID,16,VALID,0,
2009-11-18, 01:21:04,VALID,1009.12,VALID,0,VALID,72.2616,VALID,0,VALID,22.8562,VALID,16,VALID,0,
2009-11-18, 01:22:04,VALID,1009.11,VALID,0,VALID,72.254,VALID,0,VALID,22.8368,VALID,16,VALID,0,
2009-11-18, 01:23:04,VALID,1009.07,VALID,0,VALID,72.315,VALID,0,VALID,22.8385,VALID,16,VALID,0,
2009-11-18, 01:24:04,VALID,1009.08,VALID,0,VALID,72.2998,VALID,0,VALID,22.8368,VALID,16,VALID,0,
2009-11-18, 01:25:04,VALID,1009.08,VALID,0,VALID,72.254,VALID,0.105969,VALID,22.8562,VALID,16,VALID,0,
2009-11-18, 01:26:04,VALID,1009.07,VALID,0,VALID,72.2693,VALID,0.105969,VALID,22.835,VALID,16,VALID,0,
2009-11-18, 01:27:04,VALID,1009.06,VALID,0.5,VALID,72.2616,VALID,0.105969,VALID,22.8155,VALID,16,VALID,0,
2009-11-18, 01:28:04,VALID,1009.04,VALID,0,VALID,72.2845,VALID,0.105969,VALID,22.8155,VALID,16,VALID,0,
2009-11-18, 01:29:04,VALID,1009.02,VALID,0,VALID,72.2845,VALID,0,VALID,22.8155,VALID,16,VALID,0,
2009-11-18, 01:30:04,VALID,1009.01,VALID,0,VALID,72.254,VALID,0.105969,VALID,22.8562,VALID,16,VALID,0,
2009-11-18, 01:31:04,VALID,1009.01,VALID,0,VALID,72.2311,VALID,0.105969,VALID,22.874,VALID,16,VALID,0,
2009-11-18, 01:32:04,VALID,1008.99,VALID,0,VALID,72.2159,VALID,0.105969,VALID,22.8545,VALID,16,VALID,0,
2009-11-18, 01:33:04,VALID,1008.99,VALID,0,VALID,72.2769,VALID,0.105969,VALID,22.835,VALID,16,VALID,0,
2009-11-18, 01:34:04,VALID,1008.97,VALID,0,VALID,72.2616,VALID,0,VALID,22.835,VALID,16,VALID,0,
2009-11-18, 01:35:04,VALID,1008.96,VALID,0,VALID,72.2311,VALID,0.105969,VALID,22.8155,VALID,16,VALID,0,
2009-11-18, 01:36:04,VALID,1008.94,VALID,0,VALID,72.2693,VALID,0.105969,VALID,22.8155,VALID,16,VALID,0,
2009-11-18, 01:37:04,VALID,1008.96,VALID,0,VALID,72.2464,VALID,0.105969,VALID,22.8562,VALID,16,VALID,0,
2009-11-18, 01:38:04,VALID,1008.94,VALID,0,VALID,72.254,VALID,0.105969,VALID,22.8562,VALID,16,VALID,0,
2009-11-18, 01:39:04,VALID,1008.94,VALID,0,VALID,72.254,VALID,0.105969,VALID,22.8562,VALID,16,VALID,0,
2009-11-18, 01:40:04,VALID,1008.91,VALID,0,VALID,72.193,VALID,0.105969,VALID,22.835,VALID,16,VALID,0,
2009-11-18, 01:41:04,VALID,1008.86,VALID,0,VALID,72.2311,VALID,0.105969,VALID,22.8757,VALID,16,VALID,0,
2009-11-18, 01:42:04,VALID,1008.84,VALID,0,VALID,72.2159,VALID,0.105969,VALID,22.8545,VALID,117,VALID,0,
2009-11-18, 01:43:04,VALID,1008.84,VALID,0,VALID,72.2388,VALID,0.105969,VALID,22.835,VALID,117,VALID,0,
2009-11-18, 01:44:04,VALID,1008.81,VALID,0,VALID,72.2464,VALID,0.105969,VALID,22.8562,VALID,117,VALID,0,
2009-11-18, 01:45:04,VALID,1008.79,VALID,0,VALID,72.2464,VALID,0,VALID,22.835,VALID,117,VALID,0,
2009-11-18, 01:46:04,VALID,1008.76,VALID,0,VALID,72.1778,VALID,0,VALID,22.8545,VALID,117,VALID,0,
2009-11-18, 01:47:04,VALID,1008.76,VALID,0,VALID,72.2083,VALID,0,VALID,22.8545,VALID,117,VALID,0,
2009-11-18, 01:48:04,VALID,1008.76,VALID,0,VALID,72.2006,VALID,0.105969,VALID,22.8935,VALID,117,VALID,0,
2009-11-18, 01:49:04,VALID,1008.71,VALID,0,VALID,72.1625,VALID,0.105969,VALID,22.8952,VALID,117,VALID,0,
2009-11-18, 01:50:04,VALID,1008.73,VALID,0,VALID,72.2159,VALID,0.105969,VALID,22.8757,VALID,117,VALID,0,
2009-11-18, 01:51:04,VALID,1008.68,VALID,0,VALID,72.2006,VALID,0.105969,VALID,22.874,VALID,117,VALID,0,
2009-11-18, 01:52:04,VALID,1008.71,VALID,0.5,VALID,72.2083,VALID,0.105969,VALID,22.874,VALID,117,VALID,0,
2009-11-18, 01:53:04,VALID,1008.67,VALID,0,VALID,72.2006,VALID,0.105969,VALID,22.8952,VALID,117,VALID,0,
2009-11-18, 01:54:04,VALID,1008.62,VALID,0,VALID,72.2006,VALID,0.105969,VALID,22.874,VALID,117,VALID,0,
2009-11-18, 01:55:04,VALID,1008.63,VALID,0,VALID,72.2006,VALID,0,VALID,22.8952,VALID,117,VALID,0,
2009-11-18, 01:56:04,VALID,1008.59,VALID,0,VALID,72.1549,VALID,0,VALID,22.8952,VALID,117,VALID,0,
2009-11-18, 01:57:04,VALID,1008.56,VALID,0,VALID,72.2388,VALID,0,VALID,22.8562,VALID,117,VALID,0,
2009-11-18, 01:58:04,VALID,1008.58,VALID,0,VALID,72.2464,VALID,0,VALID,22.8562,VALID,117,VALID,0,
2009-11-18, 01:59:04,VALID,1008.51,VALID,0,VALID,72.2464,VALID,0,VALID,22.8562,VALID,117,VALID,0,
2009-11-18, 02:00:04,VALID,1008.54,VALID,0,VALID,72.2159,VALID,0,VALID,22.8368,VALID,117,VALID,0,
2009-11-18, 02:01:04,VALID,1008.51,VALID,0,VALID,72.193,VALID,0,VALID,22.8562,VALID,117,VALID,0,
2009-11-18, 02:02:04,VALID,1008.5,VALID,0,VALID,72.1778,VALID,0,VALID,22.8757,VALID,117,VALID,0,
2009-11-18, 02:03:04,VALID,1008.52,VALID,0,VALID,72.1473,VALID,0,VALID,22.8757,VALID,117,VALID,0,
2009-11-18, 02:04:04,VALID,1008.5,VALID,0,VALID,72.2006,VALID,0,VALID,22.8952,VALID,117,VALID,0,
2009-11-18, 02:05:04,VALID,1008.5,VALID,0,VALID,72.1854,VALID,0,VALID,22.8757,VALID,117,VALID,0,
2009-11-18, 02:06:04,VALID,1008.47,VALID,0,VALID,72.2235,VALID,0,VALID,22.8757,VALID,117,VALID,0,
2009-11-18, 02:07:04,VALID,1008.48,VALID,0,VALID,72.2006,VALID,0,VALID,22.8562,VALID,117,VALID,0,
2009-11-18, 02:08:04,VALID,1008.48,VALID,0,VALID,72.254,VALID,0,VALID,22.8368,VALID,117,VALID,0,
2009-11-18, 02:09:04,VALID,1008.44,VALID,0,VALID,72.2464,VALID,0,VALID,22.8368,VALID,117,VALID,0,
2009-11-18, 02:10:04,VALID,1008.44,VALID,0,VALID,72.254,VALID,0,VALID,22.8368,VALID,108,VALID,0.333594,
2009-11-18, 02:11:04,VALID,1008.4,VALID,0,VALID,72.2845,VALID,0,VALID,22.8173,VALID,108,VALID,0.244141,
2009-11-18, 02:12:04,VALID,1008.4,VALID,0,VALID,72.2769,VALID,0,VALID,22.8368,VALID,108,VALID,0,
2009-11-18, 02:13:04,VALID,1008.38,VALID,0,VALID,72.254,VALID,0,VALID,22.8562,VALID,108,VALID,0,
2009-11-18, 02:14:04,VALID,1008.36,VALID,0,VALID,72.2388,VALID,0,VALID,22.8757,VALID,108,VALID,0.272656,
2009-11-18, 02:15:04,VALID,1008.34,VALID,0,VALID,72.2083,VALID,0,VALID,22.9164,VALID,108,VALID,0.469141,
2009-11-18, 02:16:04,VALID,1008.35,VALID,0,VALID,72.2083,VALID,0,VALID,22.8952,VALID,98,VALID,0.594141,
2009-11-18, 02:17:04,VALID,1008.36,VALID,0,VALID,72.2159,VALID,0,VALID,22.9147,VALID,94,VALID,0.790234,
2009-11-18, 02:18:04,VALID,1008.32,VALID,0,VALID,72.2235,VALID,0,VALID,22.9342,VALID,97,VALID,0.705859,
2009-11-18, 02:19:04,VALID,1008.38,VALID,0,VALID,72.1854,VALID,0,VALID,22.9536,VALID,95,VALID,0.561328,
2009-11-18, 02:20:04,VALID,1008.37,VALID,0,VALID,72.1473,VALID,0,VALID,22.9926,VALID,95,VALID,0.504687,
2009-11-18, 02:21:04,VALID,1008.37,VALID,0,VALID,72.1625,VALID,0,VALID,23.0138,VALID,94,VALID,0.437891,
2009-11-18, 02:22:04,VALID,1008.38,VALID,0,VALID,72.1778,VALID,0,VALID,22.9926,VALID,70,VALID,0.447266,
2009-11-18, 02:23:04,VALID,1008.36,VALID,0,VALID,72.2006,VALID,0,VALID,22.9926,VALID,65,VALID,0.323438,
2009-11-18, 02:24:04,VALID,1008.38,VALID,0,VALID,72.2235,VALID,0,VALID,22.9926,VALID,54,VALID,0.557031,
2009-11-18, 02:25:04,VALID,1008.38,VALID,0,VALID,72.2006,VALID,0,VALID,22.9926,VALID,55,VALID,0.441797,
2009-11-18, 02:26:04,VALID,1008.39,VALID,0,VALID,72.2083,VALID,0,VALID,22.9731,VALID,36,VALID,0.576172,
2009-11-18, 02:27:04,VALID,1008.38,VALID,0,VALID,72.2159,VALID,0.105969,VALID,22.9926,VALID,49,VALID,0.399219,
2009-11-18, 02:28:04,VALID,1008.4,VALID,0,VALID,72.2311,VALID,0,VALID,22.9731,VALID,49,VALID,0.260938,
2009-11-18, 02:29:04,VALID,1008.37,VALID,0,VALID,72.2006,VALID,0,VALID,22.9731,VALID,48,VALID,0.123047,
2009-11-18, 02:30:04,VALID,1008.38,VALID,0,VALID,72.2388,VALID,0,VALID,22.9731,VALID,48,VALID,0.104687,
2009-11-18, 02:31:04,VALID,1008.42,VALID,0,VALID,72.2311,VALID,0,VALID,22.9536,VALID,48,VALID,0.000390625,
2009-11-18, 02:32:04,VALID,1008.42,VALID,0,VALID,72.2006,VALID,0,VALID,22.9731,VALID,47,VALID,0.219531,
2009-11-18, 02:33:04,VALID,1008.42,VALID,0,VALID,72.254,VALID,0,VALID,22.9536,VALID,47,VALID,0.210938,
2009-11-18, 02:34:04,VALID,1008.43,VALID,0,VALID,72.2464,VALID,0,VALID,22.9536,VALID,47,VALID,0.261719,
2009-11-18, 02:35:04,VALID,1008.42,VALID,0,VALID,72.2388,VALID,0,VALID,22.9731,VALID,50,VALID,0.194531,
2009-11-18, 02:36:04,VALID,1008.45,VALID,0,VALID,72.2464,VALID,0,VALID,22.9536,VALID,50,VALID,0.308984,
2009-11-18, 02:37:04,VALID,1008.45,VALID,0,VALID,72.2464,VALID,0,VALID,22.9536,VALID,49,VALID,0.366406,
2009-11-18, 02:38:04,VALID,1008.47,VALID,0,VALID,72.2388,VALID,0,VALID,22.9536,VALID,48,VALID,0.273438,
2009-11-18, 02:39:04,VALID,1008.44,VALID,0,VALID,72.2235,VALID,0,VALID,22.9749,VALID,48,VALID,0.253906,
2009-11-18, 02:40:04,VALID,1008.43,VALID,0,VALID,72.2311,VALID,0,VALID,22.9749,VALID,48,VALID,0.211328,
2009-11-18, 02:41:04,VALID,1008.45,VALID,0,VALID,72.193,VALID,0,VALID,22.9731,VALID,48,VALID,0.369531,
2009-11-18, 02:42:04,VALID,1008.44,VALID,0,VALID,72.1473,VALID,0,VALID,22.9731,VALID,48,VALID,0.179297,
2009-11-18, 02:43:04,VALID,1008.46,VALID,0,VALID,72.132,VALID,0,VALID,22.9943,VALID,48,VALID,0.269922,
2009-11-18, 02:44:04,VALID,1008.48,VALID,0,VALID,72.2006,VALID,0,VALID,22.9926,VALID,48,VALID,0.457422,
2009-11-18, 02:45:04,VALID,1008.5,VALID,0,VALID,72.1701,VALID,0,VALID,23.0138,VALID,49,VALID,0.216406,
2009-11-18, 02:46:04,VALID,1008.48,VALID,0,VALID,72.1549,VALID,0,VALID,23.0333,VALID,49,VALID,0.221875,
2009-11-18, 02:47:04,VALID,1008.48,VALID,0,VALID,72.1625,VALID,0,VALID,23.0121,VALID,49,VALID,0.0363281,
2009-11-18, 02:48:04,VALID,1008.51,VALID,0,VALID,72.1625,VALID,0,VALID,22.9926,VALID,49,VALID,0.0554687,
2009-11-18, 02:49:04,VALID,1008.49,VALID,0,VALID,72.1701,VALID,0,VALID,23.0121,VALID,49,VALID,0,
2009-11-18, 02:50:04,VALID,1008.47,VALID,0,VALID,72.0863,VALID,0,VALID,23.0333,VALID,49,VALID,0,
2009-11-18, 02:51:04,VALID,1008.49,VALID,0,VALID,72.1625,VALID,0,VALID,23.0121,VALID,49,VALID,0,
2009-11-18, 02:52:04,VALID,1008.47,VALID,0,VALID,72.1396,VALID,0,VALID,23.0528,VALID,49,VALID,0.440234,
2009-11-18, 02:53:04,VALID,1008.52,VALID,0,VALID,72.1396,VALID,0,VALID,23.0528,VALID,49,VALID,0.418359,
2009-11-18, 02:54:04,VALID,1008.49,VALID,0,VALID,72.132,VALID,0,VALID,23.0316,VALID,49,VALID,0.349219,
2009-11-18, 02:55:04,VALID,1008.5,VALID,0,VALID,72.1244,VALID,0,VALID,23.0511,VALID,49,VALID,0.164063,
2009-11-18, 02:56:04,VALID,1008.51,VALID,0,VALID,72.1168,VALID,0,VALID,23.0511,VALID,49,VALID,0.317187,
2009-11-18, 02:57:04,VALID,1008.54,VALID,0,VALID,72.1244,VALID,0,VALID,23.0511,VALID,49,VALID,0,
2009-11-18, 02:58:04,VALID,1008.53,VALID,0,VALID,72.1396,VALID,0,VALID,23.0511,VALID,49,VALID,0,
2009-11-18, 02:59:04,VALID,1008.52,VALID,0,VALID,72.132,VALID,0,VALID,23.0723,VALID,49,VALID,0,
2009-11-18, 03:00:04,VALID,1008.55,VALID,0,VALID,72.1015,VALID,0,VALID,23.0511,VALID,49,VALID,0,
2009-11-18, 03:01:04,VALID,1008.52,VALID,0,VALID,72.1015,VALID,0,VALID,23.0723,VALID,49,VALID,0,
2009-11-18, 03:02:04,VALID,1008.56,VALID,0,VALID,72.1015,VALID,0,VALID,23.0918,VALID,49,VALID,0,
2009-11-18, 03:03:04,VALID,1008.57,VALID,0,VALID,72.0939,VALID,0,VALID,23.0705,VALID,49,VALID,0.201953,
2009-11-18, 03:04:04,VALID,1008.59,VALID,0,VALID,72.0863,VALID,0,VALID,23.0705,VALID,49,VALID,0.263672,
2009-11-18, 03:05:04,VALID,1008.58,VALID,0,VALID,72.0634,VALID,0,VALID,23.0705,VALID,49,VALID,0.0125,
2009-11-18, 03:06:04,VALID,1008.59,VALID,0,VALID,72.071,VALID,0,VALID,23.09,VALID,49,VALID,0.0808594,
2009-11-18, 03:07:04,VALID,1008.58,VALID,0,VALID,72.0557,VALID,0,VALID,23.1095,VALID,50,VALID,0.397656,
2009-11-18, 03:08:04,VALID,1008.58,VALID,0,VALID,72.0329,VALID,0,VALID,23.129,VALID,80,VALID,0.772266,
2009-11-18, 03:09:04,VALID,1008.59,VALID,0,VALID,72.0252,VALID,0,VALID,23.1697,VALID,68,VALID,0.55625,
2009-11-18, 03:10:04,VALID,1008.56,VALID,0,VALID,72.0252,VALID,0.105969,VALID,23.1485,VALID,68,VALID,0.382813,
2009-11-18, 03:11:04,VALID,1008.59,VALID,0,VALID,72.0405,VALID,0.105969,VALID,23.1467,VALID,47,VALID,0.475781,
2009-11-18, 03:12:04,VALID,1008.58,VALID,0,VALID,72.0329,VALID,0.105969,VALID,23.1467,VALID,50,VALID,0.367578,
2009-11-18, 03:13:04,VALID,1008.58,VALID,0,VALID,72.0557,VALID,0.105969,VALID,23.1679,VALID,49,VALID,0.157813,
2009-11-18, 03:14:04,VALID,1008.56,VALID,0,VALID,72.0557,VALID,0.105969,VALID,23.1467,VALID,55,VALID,0.364453,
2009-11-18, 03:15:04,VALID,1008.59,VALID,0,VALID,72.0481,VALID,0.105969,VALID,23.1467,VALID,55,VALID,0.190234,
2009-11-18, 03:16:04,VALID,1008.56,VALID,0,VALID,72.0481,VALID,0.105969,VALID,23.1679,VALID,56,VALID,0.5125,
2009-11-18, 03:17:04,VALID,1008.56,VALID,0,VALID,72.0176,VALID,0.105969,VALID,23.1467,VALID,56,VALID,0.294531,
2009-11-18, 03:18:04,VALID,1008.57,VALID,0,VALID,72.0634,VALID,0.105969,VALID,23.1467,VALID,58,VALID,0.339063,
2009-11-18, 03:19:04,VALID,1008.55,VALID,0,VALID,72.0405,VALID,0.105969,VALID,23.1662,VALID,87,VALID,0.592969,
2009-11-18, 03:20:04,VALID,1008.54,VALID,0,VALID,72.0024,VALID,0.105969,VALID,23.1467,VALID,65,VALID,0.520312,
2009-11-18, 03:21:04,VALID,1008.57,VALID,0,VALID,72.0405,VALID,0.211938,VALID,23.1467,VALID,45,VALID,0.211328,
2009-11-18, 03:22:04,VALID,1008.58,VALID,0,VALID,72.0481,VALID,0.105969,VALID,23.1662,VALID,63,VALID,0.251172,
2009-11-18, 03:23:04,VALID,1008.58,VALID,0,VALID,72.0329,VALID,0.105969,VALID,23.1679,VALID,63,VALID,0.133984,
2009-11-18, 03:24:04,VALID,1008.58,VALID,0,VALID,72.0786,VALID,0.105969,VALID,23.1662,VALID,75,VALID,0.539844,
2009-11-18, 03:25:04,VALID,1008.58,VALID,0,VALID,72.0634,VALID,0,VALID,23.1485,VALID,75,VALID,0.515234,
2009-11-18, 03:26:04,VALID,1008.59,VALID,0,VALID,72.0557,VALID,0,VALID,23.1679,VALID,75,VALID,0.275781,
2009-11-18, 03:27:04,VALID,1008.57,VALID,0,VALID,72.071,VALID,0,VALID,23.1892,VALID,76,VALID,0.422266,
2009-11-18, 03:28:04,VALID,1008.53,VALID,0,VALID,72.0557,VALID,0,VALID,23.1874,VALID,77,VALID,0.275391,
2009-11-18, 03:29:04,VALID,1008.52,VALID,0,VALID,72.0557,VALID,0,VALID,23.2069,VALID,78,VALID,0.269922,
2009-11-18, 03:30:04,VALID,1008.52,VALID,0,VALID,72.071,VALID,0,VALID,23.2087,VALID,96,VALID,0.559766,
2009-11-18, 03:31:04,VALID,1008.53,VALID,0,VALID,72.0863,VALID,0,VALID,23.1874,VALID,97,VALID,0.600391,
2009-11-18, 03:32:04,VALID,1008.51,VALID,0,VALID,72.0863,VALID,0,VALID,23.1874,VALID,97,VALID,0.34375,
2009-11-18, 03:33:04,VALID,1008.51,VALID,0,VALID,72.0939,VALID,0,VALID,23.1874,VALID,97,VALID,0.360938,
2009-11-18, 03:34:04,VALID,1008.52,VALID,0,VALID,72.1168,VALID,0,VALID,23.1874,VALID,94,VALID,0.511719,
2009-11-18, 03:35:04,VALID,1008.52,VALID,0,VALID,72.1091,VALID,0,VALID,23.2087,VALID,90,VALID,0.836328,
2009-11-18, 03:36:04,VALID,1008.53,VALID,0,VALID,72.132,VALID,0,VALID,23.1874,VALID,91,VALID,0.786719,
2009-11-18, 03:37:04,VALID,1008.53,VALID,0,VALID,72.1168,VALID,0,VALID,23.2282,VALID,77,VALID,0.510547,
2009-11-18, 03:38:04,VALID,1008.55,VALID,0,VALID,72.1244,VALID,0,VALID,23.2282,VALID,76,VALID,0.35,
2009-11-18, 03:39:04,VALID,1008.55,VALID,0,VALID,72.1549,VALID,0,VALID,23.1874,VALID,53,VALID,0.166406,
2009-11-18, 03:40:04,VALID,1008.58,VALID,0,VALID,72.2006,VALID,0,VALID,23.1679,VALID,57,VALID,0.530078,
2009-11-18, 03:41:04,VALID,1008.57,VALID,0,VALID,72.1854,VALID,0,VALID,23.1874,VALID,61,VALID,0.296875,
2009-11-18, 03:42:04,VALID,1008.62,VALID,0,VALID,72.1854,VALID,0,VALID,23.1697,VALID,65,VALID,0.683203,
2009-11-18, 03:43:04,VALID,1008.64,VALID,0,VALID,72.193,VALID,0,VALID,23.1679,VALID,64,VALID,0.457031,
2009-11-18, 03:44:04,VALID,1008.65,VALID,0,VALID,72.2006,VALID,0,VALID,23.1485,VALID,64,VALID,0.294922,
2009-11-18, 03:45:04,VALID,1008.66,VALID,0,VALID,72.2006,VALID,0,VALID,23.1485,VALID,64,VALID,0.43125,